Weather History for Whiteville, NC

Change the Weather History Date:

Saturday, June 22, 2013

  Actual Average (KLBT) Record (KLBT)
Temperature  
Mean Temperature 76 °F 79 °F  
Max Temperature 80 °F 90 °F 94 °F (2007)
Min Temperature 71 °F 69 °F 57 °F (2003)
Degree Days  
Heating Degree Days 0 0  
Month to date heating degree days 0  
Since 1 June heating degree days 0  
Since 1 July heating degree days 2761  
Cooling Degree Days 10 14  
Month to date cooling degree days 267  
Year to date cooling degree days 517  
Since 1 June cooling degree days 267  
Growing Degree Days 26 (Base 50)    
Moisture  
Dew Point 72 °F    
Average Humidity 90    
Maximum Humidity 96    
Minimum Humidity 72    
Precipitation  
Precipitation 0.65 in 0.13 in 1.05 in (2000)
Month to date precipitation 3.31  
Year to date precipitation 18.38  
Sea Level Pressure  
Sea Level Pressure 30.13 in    
Wind  
Wind Speed 3 mph (NE)    
Max Wind Speed 9 mph    
Max Gust Speed -    
Visibility 8 miles    
Events Rain    
T = Trace of Precipitation, MM = Missing Value Source: NWS Daily Summary

Daily Weather History Graph

Daily Weather History Graph

Search for Another Location

Airport:

Trip Planner

Search our weather history database for the weather conditions in past years. The results will help you decide how hot, cold, wet, or windy it might be!

Date:

Astronomy

Jun. 22, 2013 Rise Set
Actual Time 6:03 AM EDT 8:30 PM EDT
Civil Twilight 5:34 AM EDT 8:59 PM EDT
Nautical Twilight 4:57 AM EDT 9:35 PM EDT
Astronomical Twilight 4:18 AM EDT 10:15 PM EDT
Moon 7:45 PM EDT (6/22) 5:11 AM EDT (6/22)
Length of Visible Light 15h 25m
Length of Day
14h 26m
Waxing Gibbous, 99% of the Moon is Illuminated
Jun 22
Waxing Gibbous
Jun 23
Full
Jun 30
Last Quarter
Jul 8
New
Jul 15
First Quarter

Hourly Weather History & Observations

Time (EDT) Temp. Heat Index Dew Point Humidity Pressure Visibility Wind Dir Wind Speed Gust Speed Precip Events Conditions
12:15 AM 72.5 °F - 70.7 °F 94% 30.16 in 10.0 mi NE 3.5 mph - N/A   Overcast
12:35 AM 72.5 °F - 70.5 °F 93% 30.16 in 10.0 mi Calm Calm - N/A   Mostly Cloudy
12:55 AM 72.1 °F - 70.3 °F 94% 30.16 in 10.0 mi NNE 4.6 mph - N/A   Scattered Clouds
1:15 AM 72.0 °F - 70.5 °F 95% 30.15 in 10.0 mi Calm Calm - N/A   Scattered Clouds
1:35 AM 71.8 °F - 70.3 °F 95% 30.14 in 7.0 mi Calm Calm - N/A   Scattered Clouds
1:55 AM 71.8 °F - 70.3 °F 95% 30.13 in 7.0 mi North 5.8 mph - N/A   Scattered Clouds
2:15 AM 71.8 °F - 70.2 °F 95% 30.13 in 7.0 mi NNE 3.5 mph - N/A   Scattered Clouds
2:35 AM 71.6 °F - 70.0 °F 95% 30.13 in 7.0 mi North 3.5 mph - N/A   Scattered Clouds
2:55 AM 71.6 °F - 70.2 °F 95% 30.12 in 7.0 mi NNE 3.5 mph - 0.01 in   Light Drizzle
3:15 AM 71.6 °F - 70.2 °F 95% 30.11 in 7.0 mi NNE 4.6 mph - N/A   Mostly Cloudy
3:35 AM 72.0 °F - 70.3 °F 95% 30.11 in 10.0 mi NNE 5.8 mph - N/A   Overcast
3:55 AM 72.0 °F - 70.2 °F 94% 30.11 in 10.0 mi NNE 4.6 mph - N/A   Overcast
4:15 AM 72.0 °F - 70.3 °F 95% 30.11 in 10.0 mi NNE 4.6 mph - N/A   Overcast
4:35 AM 71.8 °F - 70.2 °F 95% 30.11 in 10.0 mi NNE 3.5 mph - N/A   Mostly Cloudy
4:55 AM 71.8 °F - 70.2 °F 95% 30.11 in 10.0 mi NNE 3.5 mph - N/A   Overcast
5:15 AM 71.8 °F - 70.2 °F 95% 30.11 in 7.0 mi NNE 3.5 mph - N/A   Overcast
5:35 AM 71.6 °F - 70.0 °F 95% 30.11 in 10.0 mi NNE 3.5 mph - N/A   Overcast
5:55 AM 71.6 °F - 69.8 °F 94% 30.12 in 10.0 mi NNE 3.5 mph - N/A   Overcast
6:15 AM 71.6 °F - 69.8 °F 94% 30.12 in 10.0 mi NNE 4.6 mph - N/A   Overcast
6:35 AM 71.6 °F - 69.8 °F 94% 30.12 in 10.0 mi NNE 3.5 mph - N/A   Overcast
6:55 AM 71.8 °F - 70.0 °F 94% 30.13 in 10.0 mi Calm Calm - N/A   Overcast
7:15 AM 71.8 °F - 70.0 °F 94% 30.13 in 10.0 mi NNE 3.5 mph - N/A   Overcast
7:35 AM 71.6 °F - 70.0 °F 95% 30.13 in 1.8 mi North 3.5 mph - N/A Rain Heavy Rain
7:55 AM 71.6 °F - 70.2 °F 95% 30.13 in 5.0 mi North 3.5 mph - N/A Rain Light Rain
8:15 AM 72.0 °F - 70.7 °F 96% 30.13 in 5.0 mi North 3.5 mph - N/A   Light Drizzle
8:35 AM 72.0 °F - 70.5 °F 95% 30.13 in 10.0 mi North 4.6 mph - N/A   Overcast
8:55 AM 72.1 °F - 70.7 °F 95% 30.13 in 5.0 mi Calm Calm - N/A   Drizzle
9:15 AM 72.7 °F - 71.1 °F 95% 30.13 in 10.0 mi North 4.6 mph - N/A   Overcast
9:35 AM 72.7 °F - 71.1 °F 95% 30.13 in 4.0 mi NNE 4.6 mph - N/A Rain Rain
9:55 AM 73.8 °F - 71.8 °F 93% 30.13 in 3.0 mi NE 3.5 mph - N/A   Light Drizzle
10:15 AM 75.0 °F - 72.1 °F 91% 30.13 in 10.0 mi NE 3.5 mph - N/A   Overcast
10:35 AM 75.7 °F - 72.1 °F 89% 30.12 in 10.0 mi Calm Calm - N/A   Overcast
10:55 AM 75.4 °F - 71.6 °F 88% 30.13 in 10.0 mi Calm Calm - N/A   Overcast
11:15 AM 75.2 °F - 71.6 °F 89% 30.13 in 10.0 mi Calm Calm - N/A Rain Light Rain
11:35 AM 76.1 °F - 71.8 °F 86% 30.13 in 10.0 mi Calm Calm - N/A   Overcast
11:55 AM 78.1 °F - 71.6 °F 80% 30.13 in 10.0 mi Calm Calm - N/A   Mostly Cloudy
12:15 PM 78.8 °F - 70.9 °F 77% 30.14 in 10.0 mi Calm Calm - N/A   Overcast
12:35 PM 79.7 °F - 70.5 °F 73% 30.14 in 10.0 mi Calm Calm - N/A   Overcast
12:55 PM 78.4 °F - 71.1 °F 78% 30.14 in 10.0 mi Calm Calm - N/A   Overcast
1:15 PM 80.2 °F 83.6 °F 70.3 °F 72% 30.14 in 10.0 mi West 3.5 mph - N/A   Mostly Cloudy
1:35 PM 80.1 °F 83.4 °F 70.7 °F 73% 30.14 in 10.0 mi Calm Calm - N/A   Overcast
1:55 PM 80.6 °F 84.2 °F 70.7 °F 72% 30.14 in 10.0 mi Calm Calm - N/A   Overcast
2:15 PM 79.2 °F - 72.9 °F 81% 30.14 in 10.0 mi SE 4.6 mph - N/A Rain Light Rain
2:35 PM 76.5 °F - 72.5 °F 87% 30.14 in 4.0 mi WSW 5.8 mph - 0.07 in Rain Light Rain
2:55 PM 73.8 °F - 72.0 °F 94% 30.14 in 1.2 mi SE 4.6 mph - 0.28 in Rain Rain
3:15 PM 74.5 °F - 72.7 °F 94% 30.13 in 1.5 mi SE 5.8 mph - 0.21 in Rain Heavy Rain
3:35 PM 75.7 °F - 73.2 °F 92% 30.13 in 10.0 mi Calm Calm - 0.27 in Rain Light Rain
3:55 PM 77.0 °F - 73.8 °F 90% 30.13 in 10.0 mi Calm Calm - 0.27 in   Mostly Cloudy
4:15 PM 76.3 °F - 74.3 °F 94% 30.13 in 2.0 mi Calm Calm - 0.07 in Rain Heavy Rain
4:35 PM 77.2 °F - 74.3 °F 91% 30.12 in 10.0 mi Calm Calm - 0.09 in   Mostly Cloudy
4:55 PM 79.3 °F - 73.8 °F 83% 30.11 in 10.0 mi Calm Calm - 0.09 in   Clear
5:15 PM 80.4 °F 85.3 °F 73.9 °F 81% 30.11 in 10.0 mi Calm Calm - N/A   Clear
5:35 PM 80.2 °F 84.6 °F 73.2 °F 79% 30.12 in 10.0 mi SSE 3.5 mph - N/A   Scattered Clouds
5:55 PM 80.8 °F 85.6 °F 73.4 °F 78% 30.12 in 10.0 mi ESE 4.6 mph - N/A   Mostly Cloudy
6:15 PM 80.4 °F 85.1 °F 73.6 °F 80% 30.12 in 10.0 mi SSE 4.6 mph - N/A   Mostly Cloudy
6:35 PM 80.1 °F 84.5 °F 73.8 °F 81% 30.12 in 10.0 mi ESE 3.5 mph - N/A   Overcast
6:55 PM 79.7 °F - 72.9 °F 80% 30.12 in 10.0 mi ESE 8.1 mph - N/A   Overcast
7:15 PM 77.2 °F - 72.5 °F 85% 30.12 in 10.0 mi SE 9.2 mph - N/A   Scattered Clouds
7:35 PM 76.1 °F - 72.0 °F 87% 30.12 in 10.0 mi SSE 9.2 mph - N/A   Clear
7:55 PM 75.2 °F - 72.0 °F 90% 30.13 in 10.0 mi Calm Calm - N/A Rain Rain
8:15 PM 75.2 °F - 72.1 °F 90% 30.13 in 10.0 mi SE 3.5 mph - N/A Rain Rain
8:35 PM 75.2 °F - 72.3 °F 91% 30.13 in 10.0 mi Calm Calm - N/A   Overcast
8:55 PM 74.8 °F - 72.5 °F 92% 30.13 in 10.0 mi SE 3.5 mph - N/A   Mostly Cloudy
9:15 PM 74.3 °F - 72.5 °F 94% 30.14 in 7.0 mi Calm Calm - N/A   Mostly Cloudy
9:35 PM 73.8 °F - 72.5 °F 96% 30.13 in 7.0 mi Calm Calm - N/A   Scattered Clouds
9:55 PM 73.6 °F - 72.5 °F 96% 30.15 in 7.0 mi Calm Calm - N/A   Mostly Cloudy
10:15 PM 73.8 °F - 72.5 °F 96% 30.16 in 7.0 mi Calm Calm - N/A   Scattered Clouds
10:35 PM 74.3 °F - 72.3 °F 94% 30.16 in 10.0 mi Calm Calm - N/A   Scattered Clouds
10:55 PM 74.3 °F - 72.1 °F 93% 30.16 in 10.0 mi Calm Calm - N/A   Scattered Clouds
11:15 PM 74.3 °F - 72.0 °F 92% 30.15 in 10.0 mi Calm Calm - N/A   Clear
11:35 PM 73.6 °F - 71.8 °F 94% 30.16 in 7.0 mi Calm Calm - N/A   Clear
11:55 PM 73.0 °F - 71.8 °F 96% 30.16 in 7.0 mi Calm Calm - N/A   Clear